Location: Alincthun
(50.7310°N, 1.8022°E)
Time: 23:36:19
(UTC+00:00)

Helios 1A Rocket - Pass Details

Date: 17 February 2020
Orbit: 563 x 588 km, 98.3° (Epoch: 05 April)

Event Time Altitude Azimuth Distance (km) Brightness Sun altitude
Rises 06:02:04 0° 15° (NNE) 2,833 6.6 -10.1°
Reaches altitude 10° 06:04:14 10° 17° (NNE) 1,926 5.7 -9.8°
Maximum altitude 06:08:25 80° 104° (ESE) 603 3.1 -9.1°
Drops below altitude 10° 06:12:33 10° 192° (SSW) 1,902 5.5 -8.5°
Sets 06:14:42 0° 194° (SSW) 2,794 6.4 -8.2°
